Location: Unspecified
(0.0000°N, 0.0000°E)
Time: 11:48:08
(UTC+02:00)

Cosmos 1300 - Visible Passes

Search period start: 01 August 2015 00:00
Search period end: 11 August 2015 00:00
Orbit: 520 x 524 km, 82.5° (Epoch: 31 July)

Date Brightness Start Highest point End Pass type
(mag) Time Alt. Az. Time Alt. Az. Time Alt. Az.
01 Aug 5.1 06:46:41 10° SSE 06:49:46 23° E 06:52:56 10° NE visible
02 Aug 5.4 06:33:51 10° SE 06:36:37 20° E 06:39:31 10° NE visible
03 Aug 5.6 06:21:05 10° SE 06:23:28 16° E 06:26:00 10° NE visible
04 Aug 5.8 06:08:28 10° SE 06:10:18 13° E 06:12:21 10° ENE visible
05 Aug 5.9 05:56:09 10° ESE 05:57:08 11° E 05:58:24 10° ENE visible
05 Aug 4.1 07:30:01 10° SW 07:32:53 19° W 07:35:37 10° NW visible
06 Aug 3.9 07:17:31 15° SW 07:19:43 23° W 07:22:46 10° NNW visible
07 Aug 3.6 07:05:37 25° WSW 07:06:33 28° W 07:09:51 10° NNW visible
08 Aug 3.4 06:53:41 33° WNW 06:53:41 33° WNW 06:56:53 10° NNW visible
09 Aug 3.9 06:41:40 29° NW 06:41:40 29° NW 06:43:53 10° NNW visible
10 Aug 4.6 06:29:34 19° NNW 06:29:34 19° NNW 06:30:48 10° N visible
